Satellite: RS-30
Catalog number: 32953
Epoch time:      10308.50260998
Element set:     189
Inclination:      082.4994 deg
RA of node:       302.4287 deg
Eccentricity:    0.0019186
Arg of perigee:   152.1720 deg
Mean anomaly:     208.0394 deg
Mean motion:   12.43008965 rev/day
Decay rate:        1.0e-07 rev/day^2
Epoch rev:           11117
Checksum:              286

Satellite: TACSAT-3
Catalog number: 35001
Epoch time:      10308.79716831
Element set:     423
Inclination:      040.4537 deg
RA of node:       088.5826 deg
Eccentricity:    0.0023055
Arg of perigee:   336.4433 deg
Mean anomaly:     023.5328 deg
Mean motion:   15.43409483 rev/day
Decay rate:      6.086e-05 rev/day^2
Epoch rev:            8235
Checksum:              287

Satellite: PHARMSAT
Catalog number: 35002
Epoch time:      10307.80436774
Element set:    0401
Inclination:      040.4697 deg
RA of node:       092.1613 deg
Eccentricity:    0.0025567
Arg of perigee:   332.0965 deg
Mean anomaly:     027.8473 deg
Mean motion:   15.43748049 rev/day
Decay rate:      5.264e-05 rev/day^2
Epoch rev:           08222
Checksum:              285

Satellite: HAWKSAT1
Catalog number: 35003
Epoch time:      10308.52851415
Element set:     430
Inclination:      040.4597 deg
RA of node:       077.5741 deg
Eccentricity:    0.0023839
Arg of perigee:   358.5588 deg
Mean anomaly:     001.5172 deg
Mean motion:   15.48652674 rev/day
Decay rate:     1.4000e-04 rev/day^2
Epoch rev:            8245
Checksum:              284

Satellite: CP6
Catalog number: 35004
Epoch time:      10307.77999232
Element set:     428
Inclination:      040.4622 deg
RA of node:       079.7812 deg
Eccentricity:    0.0022705
Arg of perigee:   357.9288 deg
Mean anomaly:     002.1425 deg
Mean motion:   15.50175253 rev/day
Decay rate:     1.7016e-04 rev/day^2
Epoch rev:            8235
Checksum:              289

Satellite: AEROCUB3
Catalog number: 35005
Epoch time:      10307.71164106
Element set:    0516
Inclination:      040.4645 deg
RA of node:       066.0178 deg
Eccentricity:    0.0023766
Arg of perigee:   027.0258 deg
Mean anomaly:     333.1794 deg
Mean motion:   15.67251895 rev/day
Decay rate:    1.08159e-03 rev/day^2
Epoch rev:           08250
Checksum:              288

Satellite: CASTOR
Catalog number: 35694
Epoch time:      10230.44082147
Element set:     655
Inclination:      051.5930 deg
RA of node:       222.0149 deg
Eccentricity:    0.0004218
Arg of perigee:   308.0851 deg
Mean anomaly:     053.0105 deg
Mean motion:   16.48877011 rev/day
Decay rate:   7.179566e-02 rev/day^2
Epoch rev:            6110
Checksum:              273

Satellite: METEOR-M
Catalog number: 35865
Epoch time:      10308.59602498
Element set:     804
Inclination:      098.7405 deg
RA of node:       001.2630 deg
Eccentricity:    0.0002336
Arg of perigee:   341.0760 deg
Mean anomaly:     019.0304 deg
Mean motion:   14.21832629 rev/day
Decay rate:       1.76e-06 rev/day^2
Epoch rev:            5867
Checksum:              279

Satellite: RS-38
Catalog number: 35869
Epoch time:      10308.62245197
Element set:     817
Inclination:      098.7403 deg
RA of node:       001.3300 deg
Eccentricity:    0.0004213
Arg of perigee:   329.9413 deg
Mean anomaly:     030.1492 deg
Mean motion:   14.21992457 rev/day
Decay rate:       1.77e-06 rev/day^2
Epoch rev:            5868
Checksum:              300

/EX




More information about the Keps mailing list